Flag for U.S.A. Weather past 2 weeks in Lexington, North Carolina, U.S.A.

Now
43 °F

Mostly cloudy.


Feels Like: 43 °F
Forecast: 27 / 43 °F
Wind: No wind

Location: Davidson County Airport

Current Time: Jan 30, 2015 at 3:53:20 AM

Latest Report: Jan 30, 2015 at 3:15 AM


Visibility: 10 mi

Pressure: 29.98 "Hg

Humidity: 56%

Dew point: 28 °F

Location of LexingtonLocation

Historic Weather in Lexington — Graph

°F

Lexington temperature yesterday

Maximum temperature yesterday: 49 °F (at 1:35 PM)
Minimum temperature yesterday: 22 °F (at 5:35 AM)
Average temperature yesterday: 34 °F

Past Weeks' High & Low Weather Summary

 TemperatureHumidityPressure
High67 °F (Jan 20, 2:15 PM)99% (Jan 15, 12:15 PM)30.34 "Hg (Jan 15, 12:15 PM)
Low22 °F (Jan 29, 5:35 AM)21% (Jan 19, 2:55 PM)29.56 "Hg (Jan 24, 5:35 AM)
Average40 °F65%30.02 "Hg
* Reported Jan 15 2:15 AM — Jan 30 2:55 AM, Lexington, Weather by CustomWeather, © 2014

Note: Actual official high and low records may vary slightly from our data, if they occured in-between our weather recording intervals... More about our weather records

Advertising

Lexington weather history for previous 24 hours

 ConditionsComfort  
Time TempWeatherWind HumidityBarometerVisibility
2:55 AM
Jan 30
42 °FDrizzle. Overcast.No wind56%29.98 "Hg10 mi
2:35 AM42 °FMostly cloudy.No wind57%29.98 "Hg10 mi
2:15 AM41 °FMostly cloudy.No wind59%29.98 "Hg10 mi
1:55 AM39 °FMostly cloudy.No wind67%29.98 "Hg10 mi
1:35 AM40 °FMostly cloudy.No wind62%29.98 "Hg10 mi
1:15 AM41 °FMostly cloudy.No wind57%29.97 "Hg10 mi
12:55 AM41 °FMostly cloudy.No wind57%29.98 "Hg10 mi
12:35 AM40 °FOvercast.No wind57%29.98 "Hg10 mi
12:15 AM40 °FOvercast.No wind59%29.99 "Hg10 mi
11:55 PM
Jan 29
40 °FOvercast.No wind57%30.01 "Hg10 mi
11:35 PM40 °FOvercast.No wind59%30.01 "Hg10 mi
11:15 PM40 °FOvercast.No wind58%30.02 "Hg10 mi
10:15 PM39 °FOvercast.8 mph60%30.03 "Hg10 mi
9:55 PM38 °FOvercast.3 mph63%30.05 "Hg10 mi
9:15 PM37 °FClear.No wind65%30.07 "Hg10 mi
8:55 PM35 °FClear.No wind71%30.08 "Hg10 mi
8:15 PM36 °FClear.No wind67%30.08 "Hg10 mi
7:55 PM35 °FClear.No wind71%30.08 "Hg10 mi
7:15 PM37 °FClear.No wind66%30.08 "Hg10 mi
6:55 PM37 °FClear.No wind64%30.09 "Hg10 mi
6:35 PM39 °FClear.No wind61%30.09 "Hg10 mi
6:15 PM39 °FClear.No wind59%30.08 "Hg10 mi
5:55 PM42 °FClear.No wind53%30.08 "Hg10 mi
5:15 PM44 °FScattered clouds.5 mph49%30.08 "Hg10 mi
4:55 PM45 °FSunny.7 mph47%30.09 "Hg10 mi
4:15 PM46 °FScattered clouds.6 mph45%30.11 "Hg10 mi
3:55 PM46 °FScattered clouds.5 mph45%30.11 "Hg10 mi
3:35 PM46 °FBroken clouds.5 mph46%30.11 "Hg10 mi
3:15 PM45 °FPartly sunny.7 mph47%30.12 "Hg10 mi
2:55 PM44 °FLight rain. Mostly cloudy.7 mph50%30.13 "Hg10 mi
2:35 PM47 °FMore clouds than sun.8 mph34%30.14 "Hg10 mi
2:15 PM48 °FPartly sunny.8 mph33%30.15 "Hg10 mi
1:55 PM49 °FScattered clouds.13 mph33%30.17 "Hg10 mi
1:35 PM49 °FSunny.8 mph33%30.18 "Hg10 mi
1:15 PM48 °FSunny.10 mph34%30.19 "Hg10 mi
12:55 PM47 °FSunny.9 mph38%30.20 "Hg10 mi
12:35 PM47 °FSunny.7 mph37%30.21 "Hg10 mi
12:15 PM46 °FSunny.7 mph40%30.23 "Hg10 mi
11:55 AM46 °FSunny.9 mph39%30.24 "Hg10 mi
11:35 AM45 °FSunny.7 mph42%30.26 "Hg10 mi
11:15 AM45 °FSunny.6 mph43%30.27 "Hg10 mi
10:55 AM43 °FSunny.5 mph47%30.28 "Hg10 mi
10:35 AM41 °FSunny.3 mph52%30.29 "Hg10 mi
10:15 AM39 °FSunny.3 mph55%30.30 "Hg10 mi
9:55 AM36 °FSunny.6 mph60%30.30 "Hg10 mi
9:35 AM34 °FSunny.3 mph67%30.31 "Hg10 mi
9:15 AM32 °FSunny.No wind74%30.30 "Hg10 mi
8:55 AM29 °FSunny.No wind79%30.31 "Hg10 mi
8:35 AM26 °FSunny.No wind84%30.31 "Hg10 mi
8:15 AM24 °FSunny.No wind81%30.31 "Hg10 mi
7:55 AM23 °FSunny.No wind85%30.32 "Hg10 mi
7:35 AM23 °FSunny.No wind84%30.32 "Hg10 mi
7:15 AM22 °FClear.No wind85%30.31 "Hg10 mi
6:55 AM22 °FClear.No wind86%30.31 "Hg10 mi
6:35 AM22 °FClear.No wind85%30.31 "Hg10 mi
6:15 AM22 °FClear.No wind85%30.31 "Hg10 mi
5:55 AM23 °FClear.No wind86%30.31 "Hg10 mi
5:35 AM22 °FClear.No wind88%30.31 "Hg10 mi
5:15 AM22 °FClear.No wind85%30.30 "Hg10 mi
4:55 AM22 °FClear.No wind86%30.30 "Hg10 mi
4:35 AM23 °FClear.No wind84%30.31 "Hg10 mi
4:15 AM23 °FClear.No wind84%30.31 "Hg10 mi
3:55 AM24 °FClear.No wind83%30.31 "Hg10 mi
3:35 AM23 °FClear.No wind82%30.31 "Hg10 mi
3:15 AM24 °FClear.No wind81%30.31 "Hg10 mi
Weather by CustomWeather, © 2014

See weather overviewHow to use our weather pages